Location: Namasale
(1.5000°N, 32.6167°E)
Time: 18:19:30
(UTC+00:00)

Vanguard 1 Rocket - Pass Details

Date: 19 April 2021
Orbit: 652 x 4224 km, 34.3° (Epoch: 09 May)

Event Time Altitude Azimuth Distance (km) Brightness Sun altitude
Rises 00:58:32 0° 239° (WSW) 7,582 - -41.2°
Reaches altitude 10° 01:06:30 10° 222° (SW) 7,046 - -39.2°
Exits shadow 01:13:55 17° 205° (SSW) 6,729 11.4 -37.4°
Maximum altitude 01:22:47 20° 182° (S) 6,581 11.5 -35.3°
Drops below altitude 10° 01:38:55 10° 141° (SE) 6,975 12.1 -31.4°
Sets 01:46:45 0° 125° (SE) 7,486 12.6 -29.5°
